Regional Weather Roundup
Issued by NWS Albany, NY

Home | Current Version | Previous Version | Graphics & Text | Print | Product List | Glossary On
Versions: 1 2 3 4 5 6 7 8 9 10 11 12 13 14 15 16 17 18 19 20 21 22 23 24 25 26 27 28
000
ASUS41 KALY 200210
RWRALY

NEW YORK STATE HOURLY WEATHER ROUNDUP
NATIONAL WEATHER SERVICE ALBANY NY
1000 PM EDT SAT APR 19 2014

NOTE: "FAIR" INDICATES FEW OR NO CLOUDS BELOW 12,000 FEET WITH NO
SIGNIFICANT WEATHER AND/OR NO OBSTRUCTIONS TO VISIBILITY.

NYZ032-033-038>043-046>054-057>066-NYZ062>081-200300-
EAST


CITY           SKY/WX    TMP DP  RH WIND       PRES   REMARKS
ALBANY         MOCLDY    46  22  38 N7        30.40R
GLENS FALLS    CLEAR     43  25  49 N6        30.41R
POUGHKEEPSIE   CLEAR     50  25  37 NE9       30.35R
NEWBURGH       CLEAR     50  25  37 NE12      30.36R
MONTGOMERY     PTCLDY    45  33  63 N5        30.34R
WHITE PLAINS   MOCLDY    53  22  29 N12       30.32R
ISLIP          MOCLDY    55  28  35 N9        30.31R
NEW YORK CITY  MOCLDY    57  22  25 NE10      30.32R
CENTRAL PARK   MOCLDY    58  21  24 NE10      30.35R
$$

NYZ005>009-017-018-044>046-055-056-200300-
CENTRAL


CITY           SKY/WX    TMP DP  RH WIND       PRES   REMARKS
FULTON         CLEAR     38  27  64 NE7       30.41S WCI  33
SYRACUSE       PTCLDY    41  27  57 N6        30.42R
ROME           CLEAR     40  23  50 N7        30.43R
ELMIRA         MOCLDY    39  26  59 CALM      30.40R
BINGHAMTON     MOCLDY    42  26  53 NE8       30.35S
MONTICELLO     PTCLDY    45  25  45 CALM      30.36R
$$

NYZ026>034-041>043-200300-
NORTH


CITY           SKY/WX    TMP DP  RH WIND       PRES   REMARKS
WATERTOWN      CLEAR     32  27  81 E3        30.44S
FORT DRUM      NOT AVBL
MASSENA        CLEAR     34  27  75 CALM      30.46R
SARANAC LAKE   CLEAR     27  20  75 CALM      30.39R
PLATTSBURGH    CLEAR     37  23  56 W5        30.42R WCI  33
$$

NYZ001>004-010>016-019>021-200300-
WEST


CITY           SKY/WX    TMP DP  RH WIND       PRES   REMARKS
NIAGARA FALLS  PTCLDY    42  27  55 E7        30.38S
BUFFALO        PTCLDY    44  26  49 E9        30.39R
DUNKIRK        CLEAR     41  27  57 NE3       30.38R
JAMESTOWN      PTCLDY    43  27  52 NE7       30.35R
WELLSVILLE     PTCLDY    41  23  48 NE6       30.38R
ROCHESTER      PTCLDY    42  28  57 E6        30.41S
PENN YAN       PTCLDY    40  26  57 CALM      30.41R
$$

             KEY
       WCI = WIND CHILL INDEX
       VSB = VISIBILITY
       HX  = HEAT INDEX
$$



USA.gov is the U.S. government's official web portal to all federal, state and local government web resources and services.